Regional Weather Roundup
Issued by NWS

Home | Current Version | Previous Version | Graphics & Text | Print | Product List | Glossary On
Versions: 1 2 3 4 5 6 7 8 9 10 11 12 13 14 15 16 17 18 19 20 21 22 23 24 25 26 27
000
ASUS45 KCYS 281210
RWRWY

WYOMING REGIONAL WEATHER ROUNDUP
NATIONAL WEATHER SERVICE CHEYENNE WY
600 AM MDT SUN MAY 28 2017

NOTE:  "FAIR" INDICATES FEW OR NO CLOUDS BELOW 12,000 FEET
WITH NO SIGNIFICANT WEATHER AND/OR OBSTRUCTIONS TO VISIBILITY.

WYZ001-281300-
YELLOWSTONE NATIONAL PARK

CITY           SKY/WX    TMP DP  RH WIND       PRES   REMARKS
LK YELLOWSTONE   N/A     27  27 100 CALM      30.41S
6HR MIN TEMP:  27; 6HR MAX TEMP:  31;

W YELLOWSTONE  NOT AVBL

$$
WYZ002>013-054>058-071-098>099-281300-
NORTHERN WYOMING

CITY           SKY/WX    TMP DP  RH WIND       PRES   REMARKS
JACKSON        FAIR      32  30  93 N5        30.37S WCI  27
CODY           FAIR      45  33  63 S3        30.28R
GREYBULL       FAIR      48  36  63 CALM      30.21R
6HR MIN TEMP:  46; 6HR MAX TEMP:  56;

WORLAND          N/A     41  38  89 S8        30.22R
6HR MIN TEMP:  41; 6HR MAX TEMP:  48;

SHERIDAN       FAIR      52  39  61 W7        30.15F
6HR MIN TEMP:  48; 6HR MAX TEMP:  57;

BUFFALO        FAIR      54  35  48 SW9       30.20S
6HR MIN TEMP:  51; 6HR MAX TEMP:  58;

GILLETTE       CLOUDY    51  41  68 W13       30.16R
6HR MIN TEMP:  45; 6HR MAX TEMP:  52;

HULETT         CLOUDY    54  37  54 W3        30.14R
NEWCASTLE      FAIR      41  37  87 N8        30.15R

$$
WYZ014>020-022>026-101>103-281300-
CENTRAL WYOMING

CITY           SKY/WX    TMP DP  RH WIND       PRES   REMARKS
BIG PINEY      FAIR      29  26  89 E6        30.37R WCI  23
6HR MIN TEMP:  29; 6HR MAX TEMP:  39;

PINEDALE       FAIR      27  27 100 NW5       30.37S WCI  21
DUBOIS         FAIR      34  30  86 NW10      30.35R WCI  26
LANDER         FAIR      47  28  47 VRB3      30.26S
6HR MIN TEMP:  43; 6HR MAX TEMP:  50;

RIVERTON       FAIR      44  34  67 W14       30.27R
6HR MIN TEMP:  42; 6HR MAX TEMP:  48;

CASPER         FAIR      41  36  82 W10       30.24S
6HR MIN TEMP:  40; 6HR MAX TEMP:  43;

DOUGLAS        FAIR      41  36  82 NW8       30.22R
6HR MIN TEMP:  38; 6HR MAX TEMP:  43;


$$
WYZ021-027>030-104>119-281300-
SOUTHERN WYOMING

CITY           SKY/WX    TMP DP  RH WIND       PRES   REMARKS
EVANSTON       FAIR      38  30  73 CALM      30.34S
6HR MIN TEMP:  38; 6HR MAX TEMP:  48;

KEMMERER         N/A     34  30  86 NW7       30.36S WCI  28
FORT BRIDGER   FAIR      39  30  70 W8        30.37R WCI  34
ROCK SPRINGS   FAIR      37  29  72 S6        30.33S WCI  32
6HR MIN TEMP:  37; 6HR MAX TEMP:  47;

DIXON            N/A     32  28  86 CALM      30.38R
RAWLINS        FAIR      32  27  81 CALM      30.33R
6HR MIN TEMP:  31; 6HR MAX TEMP:  38;

SARATOGA       FAIR      32  32 100 SE9       30.35R WCI  24
LARAMIE        FAIR      30  27  88 S8        30.31R WCI  22
6HR MIN TEMP:  27; 6HR MAX TEMP:  37;

CHEYENNE       FAIR      42  30  62 W9        30.25S
6HR MIN TEMP:  39; 6HR MAX TEMP:  43;

TORRINGTON     FAIR      40  38  93 W6        30.16R
6HR MIN TEMP:  40; 6HR MAX TEMP:  49;

PINE BLUFFS    FAIR      39  36  87 W9        30.22R WCI  33

$$




USA.gov is the U.S. government's official web portal to all federal, state and local government web resources and services.